Location: Memphis
(29.8667°N, 31.2500°E)
Time: 08:47:04
(UTC+00:00)

HJ-1C - Pass Details

Date: 03 March 2021
Orbit: 428 x 440 km, 97.1° (Epoch: 15 April)

Event Time Altitude Azimuth Distance (km) Brightness Sun altitude
Rises 16:53:52 0° 163° (SSE) 2,413 6.9 -13.4°
Reaches altitude 10° 16:55:53 10° 160° (SSE) 1,547 5.9 -13.9°
Maximum altitude 16:59:10 65° 78° (ENE) 485 3.2 -14.6°
Drops below altitude 10° 17:02:28 10° 356° (N) 1,550 6.2 -15.3°
Sets 17:04:29 0° 353° (N) 2,420 7.2 -15.7°
